SCP
0 -0 -0 -0 -0 -0 -0 -0 0 0 -0 -0 -0 -0 0 0 -0 -0 -0 0 0 0 -0 0 0 0 0 0 0 0 0 0 0 0 0 0 0 0 0 0 0 0 0 0 0 0 0 0 0 0 0 0 0 0
-0 -0 -0 -0 -0 -0 -0 -0 -0 0 -0 -0 -0 -0 -0 -0 0 -0 0 0 0 0 0 0 -0 0 0 0 0 -0 0 0 0 0 0 0 0 0 0 0 0 0 0 0 0 0 0 0 0 0 0 0 0 0
-0 -0 -0 -0 -0 -0 -0 0 0 0 0 -0 -0 0 0 0 0 -0 0 0 0 0 0 0 -0 -0 -0 0 0 0 0 0 0 0 0 0 0 0 0 0 0 0 -0 0 0 0 0 0 0 0 0 -0 -0 0
-0 -0 -0 -0 -0 -0 -0 0 0 0 0 0 -0 -0 -0 0 0 0 0 0 0 0 0 -0 -0 -0 -0 -0 -0 0 0 0 0 0 0 0 0 0 0 0 0 0 0 0 0 0 0 0 0 0 0 0 0 0
-0 -0 -0 -0 0 0 0 0 0 0 0 -0 0 0 0 -0 0 -0 0 0 0 0 -0 -0 -0 0 0 0 0 0 0 0 0 0 0 0 0 0 0 0 0 0 0 0 0 0 0 0 0 0 0 0 0 0
-0 -0 0 0 0 0 0 0 -0 0 0 0 0 0 0 -0 0 0 0 0 0 0 -0 0 0 0 0 0 0 0 0 0 0 0 0 0 0 0 0 0 0 0 0 0 0 0 0 0 0 0 0 0 0 0
-0 0 0 0 0 0 -0 0 0 -0 0 0 0 0 0 0 0 0 0 0 0 0 0 0 0 0 0 0 0 0 0 0 0 0 0 0 0 0 0 0 0 0 0 0 0 0 0 0 0 0 0 0 0 0
0 0 0 0 -0 -0 0 0 0 0 0 0 0 0 0 0 0 0 0 0 0 0 0 0 0 0 0 0 0 0 0 0 0 0 0 0 0 0 0 0 0 0 0 0 0 0 0 0 0 0 0 0 0 0
0 0 -0 -0 -0 -0 0 -0 0 0 0 0 0 0 0 0 0 0 0 0 0 0 0 0 0 0 0 0 0 0 0 0 0 0 0 0 0 0 0 0 0 0 0 0 0 0 0 0 0 0 0 0 0 0
0 0 0 0 -0 -0 0 -0 0 -0 0 0 0 0 0 0 -0 0 0 0 0 0 0 0 0 0 0 0 0 0 0 0 0 0 0 0 0 0 0 0 0 0 0 0 0 0 0 0 0 0 0 0 0 0
0 0 -0 -0 -0 -0 -0 -0 -0 -0 0 0 0 0 0 0 0 0 0 0 0 0 0 0 0 0 0 0 0 0 0 0 -0 0 0 0 0 0 0 0 0 0 0 0 0 0 0 0 0 0 0 0 0 0
0 0 0 0 0 0 0 0 0 0 0 0 0 0 0 0 0 0 0 0 0 0 0 0 0 0 0 0 0 0 0 0 0 0 0 0 0 0 0 0 0 0 0 0 0 0 0 0 0 0 0 0 0 0
0 0 0 0 0 0 0 0 0 -0 0 0 0 0 0 0 0 0 0 0 0 0 0 0 0 0 0 0 0 0 0 0 0 0 0 0 0 0 0 0 0 0 0 0 0 0 0 0 0 0 0 0 0 0
0 0 0 0 0 0 0 0 0 0 0 0 0 0 0 0 0 0 0 0 0 0 0 0 0 0 0 0 0 0 0 0 0 0 0 0 0 0 0 0 0 0 0 0 0 0 0 0 0 0 0 0 0 0
0 0 0 0 0 0 0 0 0 0 0 0 0 0 0 0 0 0 0 0 0 0 0 0 0 0 0 0 0 0 0 0 0 0 0 0 0 0 0 0 0 0 0 0 0 0 0 0 0 0 0 0 0 0
0 0 0 0 0 0 -0 -0 0 0 -0 0 0 0 0 0 0 0 0 0 0 0 0 0 0 0 0 0 0 0 0 0 0 0 0 0 0 0 0 0 0 0 0 0 0 0 0 0 0 0 0 0 0 0
0 0 0 0 -0 -0 0 0 -0 -0 -0 0 0 0 0 0 0 0 0 0 0 0 0 0 0 0 0 0 0 0 0 0 0 0 0 0 0 0 0 0 0 0 0 0 0 0 0 0 0 0 0 0 0 0
0 0 0 -0 0 0 0 0 0 -0 -0 0 0 0 0 0 0 0 0 0 0 0 0 0 0 0 0 0 0 0 0 0 0 0 0 0 0 0 0 0 0 0 0 0 0 0 0 0 0 0 0 0 0 0
0 0 0 0 0 0 -0 -0 0 -0 0 0 0 0 0 0 0 0 0 0 0 0 0 0 0 0 0 0 0 0 0 0 0 0 0 0 0 0 0 0 0 0 0 0 0 0 0 0 0 0 0 0 0 0
-0 -0 -0 0 0 0 -0 0 0 0 0 0 0 0 0 0 0 0 0 0 0 0 0 0 0 0 0 0 0 0 0 0 0 0 0 0 0 0 0 0 0 0 0 0 0 0 0 0 0 0 0 0 0 0
0 0 0 0 0 0 -0 -0 -0 0 0 0 0 0 0 0 0 0 0 0 0 0 0 0 0 0 0 0 0 0 0 0 0 0 0 0 0 0 0 0 0 0 0 0 0 0 0 0 0 0 0 0 0 0
0 0 0 0 -0 -0 -0 0 -0 -0 0 0 0 0 0 0 0 0 0 0 0 0 0 0 0 0 0 0 0 0 0 0 0 0 0 0 0 0 0 0 0 0 0 0 0 0 0 0 0 0 0 0 0 0
0 0 0 0 -0 -0 -0 0 0 0 0 0 0 0 0 0 0 0 0 0 0 0 0 0 0 -0 -0 -0 -0 -0 -0 0 0 0 0 0 0 0 0 0 0 0 0 0 0 0 0 0 0 0 0 0 0 0
0 0 0 0 0 0 0 0 0 0 0 0 0 0 0 0 0 0 0 0 0 0 0 0 0 -0 -0 -0 0 0 0 0 0 0 0 0 0 0 0 0 0 0 0 0 0 0 0 0 0 0 0 0 0 0
0 0 0 0 0 0 0 0 0 0 0 0 0 0 0 0 0 0 -0 -0 -0 -0 -0 -0 0 -0 -0 0 0 0 0 0 0 0 0 0 0 0 0 0 0 0 0 0 0 0 0 0 0 0 0 0 0 0
0 0 0 0 0 0 0 0 0 0 0 0 0 0 0 0 0 -0 -0 -0 -0 0 0 -0 -0 0 0 0 0 0 0 0 0 0 0 0 0 0 0 0 0 0 0 0 0 0 0 0 0 0 0 0 0 0
0 0 0 0 0 0 0 0 0 0 0 0 0 -0 -0 -0 -0 -0 -0 -0 -0 0 0 0 0 0 0 0 0 0 0 0 0 0 0 0 0 0 0 0 0 0 0 0 0 0 0 0 0 0 0 0 0 0
0 0 0 0 0 0 0 0 0 0 0 -0 -0 -0 0 -0 -0 0 -0 0 0 0 0 0 0 0 0 0 0 0 0 0 0 0 0 0 0 0 0 0 0 0 0 0 0 0 0 0 0 0 0 0 0 0
0 0 0 0 0 0 0 0 0 -0 0 0 0 0 0 0 0 0 0 0 0 0 0 0 0 0 0 0 0 0 0 0 0 0 0 0 0 0 0 0 0 0 0 0 0 0 0 0 0 0 0 0 0 0
0 0 0 0 0 0 0 0 0 -0 0 -0 -0 -0 -0 0 0 0 0 0 0 0 0 0 0 0 0 0 0 0 0 0 0 0 0 0 0 0 0 0 0 0 0 0 0 0 0 0 0 0 0 0 0 0
0 0 0 0 0 0 -0 -0 -0 -0 -0 -0 -0 0 0 0 0 0 0 0 0 0 0 0 0 0 0 0 0 0 0 0 0 0 0 0 0 0 0 0 0 0 0 0 0 0 0 0 0 0 0 0 0 0
0 0 0 0 0 0 0 0 0 0 0 0 0 0 0 0 0 0 0 0 0 0 0 0 0 0 0 0 0 0 0 0 0 0 0 0 0 0 0 0 0 0 0 0 0 0 0 0 0 0 0 0 0 0
0 0 0 0 0 0 0 0 0 0 0 0 0 0 0 0 0 0 0 0 0 0 0 0 0 0 0 0 0 0 0 0 0 0 0 0 0 0 0 0 0 0 0 0 0 0 0 0 0 0 0 0 0 0
Wind_Speed_500mb
64 67 66 65 65 67 65 61 59 52 48 53 55 59 66 71 75 76 84 90 88 30 62 41 48 34 29 26 18 4 11 8 6 7 9 13 10 8 9 15 34 28 23 19 25 24 29 9 9 17 15 19 18 20
66 65 65 67 71 73 69 68 62 58 50 49 58 60 64 66 68 74 72 72 76 62 37 55 58 47 35 32 15 12 10 9 25 11 12 4 8 3 20 8 22 19 25 14 20 19 14 17 26 19 15 18 22 21
64 65 66 69 71 64 63 57 56 58 61 54 54 60 67 71 72 72 71 62 58 59 33 46 46 44 56 44 30 9 14 23 14 14 4 5 9 10 11 13 13 16 26 6 14 15 19 24 23 18 19 19 17 18
65 66 67 62 51 44 43 41 45 47 55 58 49 53 61 69 77 77 76 65 71 22 14 27 37 70 31 37 47 48 41 22 18 10 9 5 7 20 8 6 11 6 19 17 14 9 22 20 17 18 18 20 18 15
59 54 46 47 48 46 46 43 40 37 38 47 46 47 45 49 73 68 73 65 72 41 10 33 31 33 40 61 47 51 44 37 7 9 8 6 8 10 7 6 10 9 1 7 0 22 16 16 13 18 16 17 17 17
40 38 51 47 45 46 46 44 45 47 48 45 45 44 47 45 65 66 21 65 76 64 7 4 27 34 44 45 48 49 44 41 19 7 6 10 15 7 5 6 8 17 20 23 14 17 14 15 12 15 15 15 16 17
29 48 61 52 59 56 44 36 43 50 46 39 40 40 45 55 78 51 15 21 75 61 11 6 6 11 36 40 32 30 44 22 16 9 7 7 7 9 6 6 13 17 17 18 20 22 13 24 13 11 13 12 13 15
38 53 43 54 52 47 42 43 46 56 49 40 36 40 44 68 68 32 12 15 71 47 13 6 4 10 27 13 13 21 13 21 16 10 10 13 19 8 4 9 10 16 14 12 19 16 6 7 2 7 8 5 8 14
39 39 33 34 29 12 48 48 64 57 48 47 43 45 78 59 27 25 22 52 68 14 9 9 9 8 28 8 9 12 14 6 13 6 7 8 8 5 8 10 13 16 12 15 14 11 6 6 6 7 8 8 11 16
25 29 28 34 33 32 50 61 71 55 62 60 59 26 12 33 53 72 41 10 13 10 9 5 9 5 25 12 9 8 8 5 5 8 8 6 6 13 10 11 10 12 13 15 8 3 4 6 11 13 15 16 17 19
21 31 35 36 38 54 66 64 64 71 70 55 11 11 66 83 37 8 9 9 11 8 15 9 14 10 3 10 8 7 3 6 6 8 11 10 7 8 8 10 11 11 11 14 13 14 13 14 15 18 21 23 25 24
20 28 35 42 51 63 65 61 71 53 23 27 49 63 43 12 7 8 7 5 10 8 7 12 12 11 7 4 5 9 4 3 2 15 7 9 7 12 10 10 12 13 14 17 16 17 19 22 23 25 28 30 32 34
22 25 34 46 39 40 40 35 22 44 73 53 17 10 3 4 6 10 14 7 8 9 10 15 10 9 7 5 6 5 8 3 3 5 4 8 18 14 11 11 15 17 19 22 26 27 29 32 33 33 38 39 36 37
30 32 34 28 23 27 57 65 73 38 8 9 6 9 7 7 6 6 9 8 7 8 15 20 11 5 6 2 1 6 4 4 5 8 6 9 17 13 14 15 19 24 25 28 29 32 36 38 39 38 38 35 33 33
28 26 27 35 46 44 43 33 13 15 13 12 11 8 8 9 10 6 4 3 8 8 13 14 12 7 3 5 3 7 6 6 7 6 6 21 16 17 19 21 24 26 28 29 31 35 37 38 39 39 33 31 29 28
17 15 27 26 34 29 21 14 1 18 13 12 15 8 4 7 13 13 15 16 10 10 10 6 5 6 5 4 4 3 5 4 6 9 24 23 23 23 24 25 26 28 29 32 33 34 35 33 31 30 24 21 20 18
6 4 11 17 22 19 17 12 11 16 12 10 9 15 10 15 16 13 13 13 9 8 4 2 5 6 2 5 5 9 7 11 26 27 24 25 27 28 29 31 31 31 31 30 30 29 28 25 23 20 21 18 16 14
9 11 18 28 22 15 14 16 13 12 12 14 9 16 23 19 14 18 14 20 10 6 6 6 5 7 7 4 6 9 27 30 28 28 28 29 30 30 30 30 29 27 27 25 22 21 19 17 14 13 13 12 13 12
11 15 17 16 10 6 10 10 12 11 13 13 15 15 17 21 23 21 23 18 21 18 12 9 10 8 7 9 23 28 28 30 34 32 31 30 29 29 28 27 25 22 20 17 15 12 11 12 10 8 6 5 4 4
17 19 21 20 9 10 11 11 12 13 8 11 13 18 12 12 14 22 27 27 24 14 15 9 8 18 21 23 25 27 29 31 34 35 30 25 24 23 20 17 16 15 14 14 13 13 10 8 7 6 6 6 4 3
19 23 26 22 18 19 13 9 12 17 15 12 17 14 13 23 24 25 23 23 25 14 9 18 23 24 25 27 28 29 28 26 23 23 26 24 18 17 16 15 13 11 9 7 6 8 7 5 4 4 4 5 5 4
19 15 13 15 12 11 13 15 18 16 10 18 13 10 11 12 14 18 18 24 14 21 16 23 24 27 31 30 28 26 27 27 28 27 25 23 19 16 14 11 9 9 8 6 5 4 4 3 4 3 3 4 5 3
14 10 9 9 11 10 9 8 6 6 7 9 9 7 7 8 8 9 12 15 14 18 20 24 28 29 32 30 30 28 25 25 25 22 20 19 17 15 13 11 9 8 6 5 5 3 4 2 7 4 3 2 2 4
9 7 8 8 10 9 9 6 9 9 10 6 6 8 6 8 11 12 9 10 13 16 20 22 24 27 27 26 25 24 21 21 23 21 17 14 13 11 10 9 7 7 6 3 3 2 2 3 2 1 4 3 6 5
6 15 9 10 7 8 8 6 5 6 7 6 6 7 6 6 6 7 6 11 15 15 16 17 18 19 22 22 20 20 19 14 15 16 14 12 11 8 7 6 5 3 3 4 3 2 3 2 2 3 5 5 8 8
12 17 10 6 5 4 5 8 6 9 7 6 7 9 5 5 7 11 7 20 18 17 16 18 20 22 20 18 18 15 14 13 12 12 10 8 7 4 1 0 2 6 6 1 2 3 6 7 7 10 9 12 17 16
8 9 11 12 4 9 11 14 16 10 7 6 7 5 5 7 8 7 19 18 22 21 19 18 15 16 18 17 16 13 11 12 11 7 3 2 2 0 3 1 1 7 7 5 4 2 5 7 8 9 10 10 12 14
11 14 8 12 14 20 8 8 8 7 6 6 5 7 6 6 6 10 15 23 24 22 21 22 21 20 19 16 14 12 11 9 7 5 4 5 5 4 5 4 4 5 7 8 9 10 9 10 10 11 13 14 15 16
12 10 13 14 14 18 20 11 8 9 8 6 5 6 8 10 13 26 25 24 22 20 20 20 20 17 16 16 13 11 6 5 3 5 4 3 3 10 9 8 9 10 12 13 16 15 14 14 14 14 15 16 17 20
8 10 12 16 11 12 16 16 17 11 10 18 25 44 46 30 30 27 25 22 20 19 18 19 18 13 12 9 6 3 2 3 2 2 3 1 4 12 11 11 13 16 17 17 16 15 17 15 16 16 16 18 16 17
9 10 13 16 12 25 33 32 36 40 40 45 40 43 33 22 24 24 23 21 21 20 18 15 14 14 11 9 5 3 6 5 6 6 7 9 10 12 14 15 16 17 17 15 15 14 15 15 15 17 18 20 23 25
10 8 14 10 17 14 10 19 27 39 34 32 28 29 25 16 11 6 17 20 13 12 17 13 10 9 5 3 2 1 3 4 6 9 10 12 13 13 14 14 13 13 13 14 14 15 16 17 19 20 23 24 26 27
34 37 41 32 16 14 9 13 11 12 14 11 8 8 9 7 8 6 21 24 25 18 15 15 11 8 6 4 2 1 3 6 9 11 11 11 10 11 10 10 11 12 13 14 16 18 19 21 22 24 26 28 29 31
Wind_Direction_500mb
287 287 286 281 280 282 284 275 274 269 260 239 234 230 229 228 225 220 228 228 216 229 238 237 246 258 247 248 234 128 127 160 174 244 251 241 242 251 249 203 182 185 186 203 228 231 244 52 217 229 50 80 46 37
289 287 284 282 283 281 277 273 269 259 251 240 233 229 226 221 217 213 222 227 214 215 238 238 240 247 258 261 256 200 266 155 210 236 230 249 274 192 263 199 176 201 203 182 201 218 89 82 79 83 65 62 46 46
288 287 286 285 284 283 278 270 261 252 244 242 237 229 224 219 216 216 216 221 213 212 230 237 232 246 236 241 242 254 234 233 233 274 265 249 263 263 243 222 212 173 207 194 204 188 160 120 99 66 59 60 48 35
290 289 288 290 283 277 277 271 257 250 239 232 228 226 223 218 214 213 214 220 202 177 222 236 237 230 219 227 232 235 243 276 254 265 257 241 253 267 240 282 268 50 196 203 222 148 113 99 72 40 43 44 37 30
293 296 294 289 283 276 280 264 251 233 214 208 217 219 219 212 203 206 210 219 214 181 213 235 233 238 239 223 233 225 227 236 284 196 236 237 274 286 277 280 259 214 223 234 24 35 47 87 54 26 33 35 30 24
300 301 302 296 286 278 278 249 234 218 212 211 213 212 208 203 185 181 163 196 197 197 260 249 233 230 213 210 225 220 227 219 214 294 222 234 244 246 238 242 66 72 59 39 42 16 18 55 68 34 37 34 33 34
301 309 307 299 289 281 265 242 223 195 192 190 193 194 194 184 176 165 163 187 192 194 214 258 222 170 198 199 205 216 214 225 215 195 240 259 266 252 251 245 93 61 42 37 23 2 91 51 65 37 41 35 43 48
304 316 324 311 302 272 226 206 188 175 177 176 173 174 165 173 177 173 201 199 178 177 188 257 139 130 165 158 181 201 176 188 211 209 235 242 262 215 253 71 53 29 4 47 12 11 27 99 342 352 360 3 31 44
323 337 340 351 360 127 166 167 165 166 166 161 159 156 150 161 154 160 129 155 165 156 202 209 185 154 172 143 127 146 172 190 182 217 230 227 222 216 57 49 47 24 15 337 339 94 71 74 57 35 29 48 70 74
358 18 51 47 59 117 144 155 154 154 147 148 152 142 113 138 137 138 137 123 153 214 236 244 144 129 180 144 148 139 184 199 191 202 151 215 92 98 72 62 42 23 15 6 345 88 34 65 69 71 72 80 91 93
77 74 68 65 95 102 116 133 144 143 150 142 131 102 128 139 122 111 146 174 157 196 197 183 167 134 167 169 138 200 191 181 231 165 201 190 115 92 65 43 35 39 45 52 65 63 67 97 106 102 96 96 99 101
106 95 80 89 103 111 120 128 139 135 137 136 128 125 118 118 131 155 128 121 211 181 116 152 133 112 146 131 131 168 220 204 243 157 224 154 105 86 63 52 49 57 64 69 77 85 88 97 106 108 106 105 107 112
91 100 102 120 117 113 126 132 132 114 117 115 104 87 184 41 160 186 164 183 146 126 157 155 125 131 136 161 112 187 190 52 172 232 71 61 107 97 100 89 79 83 89 91 90 94 97 100 104 105 109 111 116 112
114 106 113 138 136 130 121 117 122 123 117 83 79 75 7 97 77 31 16 61 69 65 143 145 130 112 104 100 212 121 63 215 221 205 84 105 100 104 103 103 102 94 98 99 98 104 104 105 106 109 108 113 114 111
116 90 106 119 135 133 127 136 70 28 70 63 40 64 71 101 74 48 23 50 46 74 114 117 81 82 74 121 68 122 166 168 6 65 87 109 118 111 104 103 102 100 102 103 109 111 111 112 109 106 109 112 111 109
88 88 118 127 153 171 199 228 309 48 63 54 45 94 35 109 85 66 48 68 43 75 85 89 117 148 98 113 124 68 205 79 93 95 112 124 117 114 112 110 110 114 113 112 112 113 113 111 110 110 112 108 105 103
114 144 111 156 156 155 165 150 66 57 57 46 63 34 39 67 51 49 28 12 32 354 63 97 62 47 141 84 90 5 32 97 110 112 113 120 121 118 115 114 114 114 113 112 111 109 104 98 94 95 92 88 86 83
145 151 124 108 119 120 109 50 75 74 73 48 83 67 67 49 55 45 28 19 32 80 54 65 67 56 32 63 100 105 103 105 108 109 112 112 112 112 115 114 116 114 113 112 108 102 100 99 94 96 100 99 84 80
163 158 160 166 119 77 78 58 60 87 74 86 73 67 70 63 50 45 42 47 64 77 87 62 50 41 54 55 115 118 122 123 118 110 104 110 115 118 120 121 119 117 115 105 103 109 109 109 110 112 114 115 117 106
103 137 133 139 132 83 78 62 71 84 89 99 80 63 64 46 39 43 48 48 57 65 55 49 45 58 87 96 111 114 116 123 123 116 108 104 107 109 110 112 113 110 102 93 93 93 93 91 93 118 134 146 147 125
97 107 110 105 70 71 82 87 74 98 109 92 104 91 78 62 52 42 37 31 53 37 69 78 82 82 90 98 107 114 113 119 118 123 127 121 113 108 103 100 100 106 108 106 97 99 97 110 97 93 100 109 118 135
132 128 100 73 81 77 75 49 105 109 85 111 97 82 84 67 53 38 42 50 72 40 67 98 101 103 97 94 99 106 119 123 123 121 121 109 109 108 104 102 109 106 103 100 116 131 125 115 118 113 116 122 115 155
123 104 73 71 86 78 114 156 91 95 107 112 115 87 71 76 58 65 76 58 81 62 88 96 99 104 104 104 105 100 102 106 106 109 109 108 106 104 103 98 97 98 93 78 92 121 207 205 180 154 200 148 214 278
114 75 59 67 75 95 118 72 98 97 101 91 82 86 68 84 96 72 74 75 85 97 99 103 107 105 100 95 91 92 93 102 104 99 98 103 104 97 97 92 87 90 101 102 93 95 128 222 218 279 247 254 266 248
95 19 27 73 86 116 110 102 81 88 94 98 99 100 103 133 80 79 91 119 127 116 116 113 114 117 116 112 107 101 96 102 109 105 91 95 98 92 81 79 68 43 55 15 337 313 276 246 263 254 268 277 267 285
76 25 26 35 72 97 104 114 119 116 102 88 80 104 124 98 84 100 108 146 138 131 126 125 126 123 115 115 115 107 96 96 104 102 84 77 81 82 94 307 323 318 315 262 266 267 274 272 269 276 285 297 300 291
82 59 56 39 30 97 104 81 77 79 81 91 117 122 119 88 94 92 122 125 134 130 128 122 125 131 131 123 117 117 121 129 139 141 113 41 353 139 113 88 243 257 300 292 296 289 271 282 290 292 289 291 296 295
68 36 73 27 63 41 70 57 51 56 72 49 93 54 67 60 97 106 133 135 134 128 119 115 117 122 123 126 127 125 121 106 87 60 40 25 7 360 353 340 328 318 317 319 311 308 296 293 293 296 293 288 286 294
64 69 83 43 55 51 38 34 53 52 15 11 93 89 97 87 104 126 126 128 127 126 126 127 126 128 132 136 132 125 111 80 53 23 29 22 348 323 336 332 329 327 326 328 325 318 309 304 299 294 291 293 290 292
64 42 89 54 54 47 39 42 67 57 80 90 101 113 107 96 90 110 111 116 123 124 125 130 124 121 125 123 124 92 33 21 28 88 358 336 276 303 310 312 314 316 318 317 313 307 312 314 312 314 313 307 303 295
86 78 78 70 82 85 88 89 82 77 86 100 112 111 113 113 98 108 112 120 122 122 127 135 133 128 119 104 93 46 333 338 336 330 318 310 309 306 308 310 310 313 316 318 318 316 313 315 311 307 307 305 306 308
50 81 123 110 127 142 109 88 78 92 96 100 101 102 107 104 94 117 140 118 113 128 142 130 133 156 141 125 127 181 297 320 325 325 322 316 312 313 312 314 317 319 321 321 322 321 320 317 315 311 310 309 308 308
99 99 106 103 125 143 172 142 106 100 93 99 93 93 74 67 111 155 167 165 153 155 162 171 162 153 144 131 97 26 343 332 331 332 328 321 318 322 325 329 334 336 335 332 328 324 322 319 317 315 312 311 310 310
Wind_Speed_850mb
64 67 66 65 65 67 65 61 59 52 48 53 55 59 66 71 75 76 84 90 88 30 62 41 48 34 29 26 18 4 11 8 6 7 9 13 10 8 9 15 34 28 23 19 25 24 29 9 9 17 15 19 18 20
66 65 65 67 71 73 69 68 62 58 50 49 58 60 64 66 68 74 72 72 76 62 37 55 58 47 35 32 15 12 10 9 25 11 12 4 8 3 20 8 22 19 25 14 20 19 14 17 26 19 15 18 22 21
64 65 66 69 71 64 63 57 56 58 61 54 54 60 67 71 72 72 71 62 58 59 33 46 46 44 56 44 30 9 14 23 14 14 4 5 9 10 11 13 13 16 26 6 14 15 19 24 23 18 19 19 17 18
65 66 67 62 51 44 43 41 45 47 55 58 49 53 61 69 77 77 76 65 71 22 14 27 37 70 31 37 47 48 41 22 18 10 9 5 7 20 8 6 11 6 19 17 14 9 22 20 17 18 18 20 18 15
59 54 46 47 48 46 46 43 40 37 38 47 46 47 45 49 73 68 73 65 72 41 10 33 31 33 40 61 47 51 44 37 7 9 8 6 8 10 7 6 10 9 1 7 0 22 16 16 13 18 16 17 17 17
40 38 51 47 45 46 46 44 45 47 48 45 45 44 47 45 65 66 21 65 76 64 7 4 27 34 44 45 48 49 44 41 19 7 6 10 15 7 5 6 8 17 20 23 14 17 14 15 12 15 15 15 16 17
29 48 61 52 59 56 44 36 43 50 46 39 40 40 45 55 78 51 15 21 75 61 11 6 6 11 36 40 32 30 44 22 16 9 7 7 7 9 6 6 13 17 17 18 20 22 13 24 13 11 13 12 13 15
38 53 43 54 52 47 42 43 46 56 49 40 36 40 44 68 68 32 12 15 71 47 13 6 4 10 27 13 13 21 13 21 16 10 10 13 19 8 4 9 10 16 14 12 19 16 6 7 2 7 8 5 8 14
39 39 33 34 29 12 48 48 64 57 48 47 43 45 78 59 27 25 22 52 68 14 9 9 9 8 28 8 9 12 14 6 13 6 7 8 8 5 8 10 13 16 12 15 14 11 6 6 6 7 8 8 11 16
25 29 28 34 33 32 50 61 71 55 62 60 59 26 12 33 53 72 41 10 13 10 9 5 9 5 25 12 9 8 8 5 5 8 8 6 6 13 10 11 10 12 13 15 8 3 4 6 11 13 15 16 17 19
21 31 35 36 38 54 66 64 64 71 70 55 11 11 66 83 37 8 9 9 11 8 15 9 14 10 3 10 8 7 3 6 6 8 11 10 7 8 8 10 11 11 11 14 13 14 13 14 15 18 21 23 25 24
20 28 35 42 51 63 65 61 71 53 23 27 49 63 43 12 7 8 7 5 10 8 7 12 12 11 7 4 5 9 4 3 2 15 7 9 7 12 10 10 12 13 14 17 16 17 19 22 23 25 28 30 32 34
22 25 34 46 39 40 40 35 22 44 73 53 17 10 3 4 6 10 14 7 8 9 10 15 10 9 7 5 6 5 8 3 3 5 4 8 18 14 11 11 15 17 19 22 26 27 29 32 33 33 38 39 36 37
30 32 34 28 23 27 57 65 73 38 8 9 6 9 7 7 6 6 9 8 7 8 15 20 11 5 6 2 1 6 4 4 5 8 6 9 17 13 14 15 19 24 25 28 29 32 36 38 39 38 38 35 33 33
28 26 27 35 46 44 43 33 13 15 13 12 11 8 8 9 10 6 4 3 8 8 13 14 12 7 3 5 3 7 6 6 7 6 6 21 16 17 19 21 24 26 28 29 31 35 37 38 39 39 33 31 29 28
17 15 27 26 34 29 21 14 1 18 13 12 15 8 4 7 13 13 15 16 10 10 10 6 5 6 5 4 4 3 5 4 6 9 24 23 23 23 24 25 26 28 29 32 33 34 35 33 31 30 24 21 20 18
6 4 11 17 22 19 17 12 11 16 12 10 9 15 10 15 16 13 13 13 9 8 4 2 5 6 2 5 5 9 7 11 26 27 24 25 27 28 29 31 31 31 31 30 30 29 28 25 23 20 21 18 16 14
9 11 18 28 22 15 14 16 13 12 12 14 9 16 23 19 14 18 14 20 10 6 6 6 5 7 7 4 6 9 27 30 28 28 28 29 30 30 30 30 29 27 27 25 22 21 19 17 14 13 13 12 13 12
11 15 17 16 10 6 10 10 12 11 13 13 15 15 17 21 23 21 23 18 21 18 12 9 10 8 7 9 23 28 28 30 34 32 31 30 29 29 28 27 25 22 20 17 15 12 11 12 10 8 6 5 4 4
17 19 21 20 9 10 11 11 12 13 8 11 13 18 12 12 14 22 27 27 24 14 15 9 8 18 21 23 25 27 29 31 34 35 30 25 24 23 20 17 16 15 14 14 13 13 10 8 7 6 6 6 4 3
19 23 26 22 18 19 13 9 12 17 15 12 17 14 13 23 24 25 23 23 25 14 9 18 23 24 25 27 28 29 28 26 23 23 26 24 18 17 16 15 13 11 9 7 6 8 7 5 4 4 4 5 5 4
19 15 13 15 12 11 13 15 18 16 10 18 13 10 11 12 14 18 18 24 14 21 16 23 24 27 31 30 28 26 27 27 28 27 25 23 19 16 14 11 9 9 8 6 5 4 4 3 4 3 3 4 5 3
14 10 9 9 11 10 9 8 6 6 7 9 9 7 7 8 8 9 12 15 14 18 20 24 28 29 32 30 30 28 25 25 25 22 20 19 17 15 13 11 9 8 6 5 5 3 4 2 7 4 3 2 2 4
9 7 8 8 10 9 9 6 9 9 10 6 6 8 6 8 11 12 9 10 13 16 20 22 24 27 27 26 25 24 21 21 23 21 17 14 13 11 10 9 7 7 6 3 3 2 2 3 2 1 4 3 6 5
6 15 9 10 7 8 8 6 5 6 7 6 6 7 6 6 6 7 6 11 15 15 16 17 18 19 22 22 20 20 19 14 15 16 14 12 11 8 7 6 5 3 3 4 3 2 3 2 2 3 5 5 8 8
12 17 10 6 5 4 5 8 6 9 7 6 7 9 5 5 7 11 7 20 18 17 16 18 20 22 20 18 18 15 14 13 12 12 10 8 7 4 1 0 2 6 6 1 2 3 6 7 7 10 9 12 17 16
8 9 11 12 4 9 11 14 16 10 7 6 7 5 5 7 8 7 19 18 22 21 19 18 15 16 18 17 16 13 11 12 11 7 3 2 2 0 3 1 1 7 7 5 4 2 5 7 8 9 10 10 12 14
11 14 8 12 14 20 8 8 8 7 6 6 5 7 6 6 6 10 15 23 24 22 21 22 21 20 19 16 14 12 11 9 7 5 4 5 5 4 5 4 4 5 7 8 9 10 9 10 10 11 13 14 15 16
12 10 13 14 14 18 20 11 8 9 8 6 5 6 8 10 13 26 25 24 22 20 20 20 20 17 16 16 13 11 6 5 3 5 4 3 3 10 9 8 9 10 12 13 16 15 14 14 14 14 15 16 17 20
8 10 12 16 11 12 16 16 17 11 10 18 25 44 46 30 30 27 25 22 20 19 18 19 18 13 12 9 6 3 2 3 2 2 3 1 4 12 11 11 13 16 17 17 16 15 17 15 16 16 16 18 16 17
9 10 13 16 12 25 33 32 36 40 40 45 40 43 33 22 24 24 23 21 21 20 18 15 14 14 11 9 5 3 6 5 6 6 7 9 10 12 14 15 16 17 17 15 15 14 15 15 15 17 18 20 23 25
10 8 14 10 17 14 10 19 27 39 34 32 28 29 25 16 11 6 17 20 13 12 17 13 10 9 5 3 2 1 3 4 6 9 10 12 13 13 14 14 13 13 13 14 14 15 16 17 19 20 23 24 26 27
34 37 41 32 16 14 9 13 11 12 14 11 8 8 9 7 8 6 21 24 25 18 15 15 11 8 6 4 2 1 3 6 9 11 11 11 10 11 10 10 11 12 13 14 16 18 19 21 22 24 26 28 29 31
Wind_Direction_850mb
287 287 286 281 280 282 284 275 274 269 260 239 234 230 229 228 225 220 228 228 216 229 238 237 246 258 247 248 234 128 127 160 174 244 251 241 242 251 249 203 182 185 186 203 228 231 244 52 217 229 50 80 46 37
289 287 284 282 283 281 277 273 269 259 251 240 233 229 226 221 217 213 222 227 214 215 238 238 240 247 258 261 256 200 266 155 210 236 230 249 274 192 263 199 176 201 203 182 201 218 89 82 79 83 65 62 46 46
288 287 286 285 284 283 278 270 261 252 244 242 237 229 224 219 216 216 216 221 213 212 230 237 232 246 236 241 242 254 234 233 233 274 265 249 263 263 243 222 212 173 207 194 204 188 160 120 99 66 59 60 48 35
290 289 288 290 283 277 277 271 257 250 239 232 228 226 223 218 214 213 214 220 202 177 222 236 237 230 219 227 232 235 243 276 254 265 257 241 253 267 240 282 268 50 196 203 222 148 113 99 72 40 43 44 37 30
293 296 294 289 283 276 280 264 251 233 214 208 217 219 219 212 203 206 210 219 214 181 213 235 233 238 239 223 233 225 227 236 284 196 236 237 274 286 277 280 259 214 223 234 24 35 47 87 54 26 33 35 30 24
300 301 302 296 286 278 278 249 234 218 212 211 213 212 208 203 185 181 163 196 197 197 260 249 233 230 213 210 225 220 227 219 214 294 222 234 244 246 238 242 66 72 59 39 42 16 18 55 68 34 37 34 33 34
301 309 307 299 289 281 265 242 223 195 192 190 193 194 194 184 176 165 163 187 192 194 214 258 222 170 198 199 205 216 214 225 215 195 240 259 266 252 251 245 93 61 42 37 23 2 91 51 65 37 41 35 43 48
304 316 324 311 302 272 226 206 188 175 177 176 173 174 165 173 177 173 201 199 178 177 188 257 139 130 165 158 181 201 176 188 211 209 235 242 262 215 253 71 53 29 4 47 12 11 27 99 342 352 360 3 31 44
323 337 340 351 360 127 166 167 165 166 166 161 159 156 150 161 154 160 129 155 165 156 202 209 185 154 172 143 127 146 172 190 182 217 230 227 222 216 57 49 47 24 15 337 339 94 71 74 57 35 29 48 70 74
358 18 51 47 59 117 144 155 154 154 147 148 152 142 113 138 137 138 137 123 153 214 236 244 144 129 180 144 148 139 184 199 191 202 151 215 92 98 72 62 42 23 15 6 345 88 34 65 69 71 72 80 91 93
77 74 68 65 95 102 116 133 144 143 150 142 131 102 128 139 122 111 146 174 157 196 197 183 167 134 167 169 138 200 191 181 231 165 201 190 115 92 65 43 35 39 45 52 65 63 67 97 106 102 96 96 99 101
106 95 80 89 103 111 120 128 139 135 137 136 128 125 118 118 131 155 128 121 211 181 116 152 133 112 146 131 131 168 220 204 243 157 224 154 105 86 63 52 49 57 64 69 77 85 88 97 106 108 106 105 107 112
91 100 102 120 117 113 126 132 132 114 117 115 104 87 184 41 160 186 164 183 146 126 157 155 125 131 136 161 112 187 190 52 172 232 71 61 107 97 100 89 79 83 89 91 90 94 97 100 104 105 109 111 116 112
114 106 113 138 136 130 121 117 122 123 117 83 79 75 7 97 77 31 16 61 69 65 143 145 130 112 104 100 212 121 63 215 221 205 84 105 100 104 103 103 102 94 98 99 98 104 104 105 106 109 108 113 114 111
116 90 106 119 135 133 127 136 70 28 70 63 40 64 71 101 74 48 23 50 46 74 114 117 81 82 74 121 68 122 166 168 6 65 87 109 118 111 104 103 102 100 102 103 109 111 111 112 109 106 109 112 111 109
88 88 118 127 153 171 199 228 309 48 63 54 45 94 35 109 85 66 48 68 43 75 85 89 117 148 98 113 124 68 205 79 93 95 112 124 117 114 112 110 110 114 113 112 112 113 113 111 110 110 112 108 105 103
114 144 111 156 156 155 165 150 66 57 57 46 63 34 39 67 51 49 28 12 32 354 63 97 62 47 141 84 90 5 32 97 110 112 113 120 121 118 115 114 114 114 113 112 111 109 104 98 94 95 92 88 86 83
145 151 124 108 119 120 109 50 75 74 73 48 83 67 67 49 55 45 28 19 32 80 54 65 67 56 32 63 100 105 103 105 108 109 112 112 112 112 115 114 116 114 113 112 108 102 100 99 94 96 100 99 84 80
163 158 160 166 119 77 78 58 60 87 74 86 73 67 70 63 50 45 42 47 64 77 87 62 50 41 54 55 115 118 122 123 118 110 104 110 115 118 120 121 119 117 115 105 103 109 109 109 110 112 114 115 117 106
103 137 133 139 132 83 78 62 71 84 89 99 80 63 64 46 39 43 48 48 57 65 55 49 45 58 87 96 111 114 116 123 123 116 108 104 107 109 110 112 113 110 102 93 93 93 93 91 93 118 134 146 147 125
97 107 110 105 70 71 82 87 74 98 109 92 104 91 78 62 52 42 37 31 53 37 69 78 82 82 90 98 107 114 113 119 118 123 127 121 113 108 103 100 100 106 108 106 97 99 97 110 97 93 100 109 118 135
132 128 100 73 81 77 75 49 105 109 85 111 97 82 84 67 53 38 42 50 72 40 67 98 101 103 97 94 99 106 119 123 123 121 121 109 109 108 104 102 109 106 103 100 116 131 125 115 118 113 116 122 115 155
123 104 73 71 86 78 114 156 91 95 107 112 115 87 71 76 58 65 76 58 81 62 88 96 99 104 104 104 105 100 102 106 106 109 109 108 106 104 103 98 97 98 93 78 92 121 207 205 180 154 200 148 214 278
114 75 59 67 75 95 118 72 98 97 101 91 82 86 68 84 96 72 74 75 85 97 99 103 107 105 100 95 91 92 93 102 104 99 98 103 104 97 97 92 87 90 101 102 93 95 128 222 218 279 247 254 266 248
95 19 27 73 86 116 110 102 81 88 94 98 99 100 103 133 80 79 91 119 127 116 116 113 114 117 116 112 107 101 96 102 109 105 91 95 98 92 81 79 68 43 55 15 337 313 276 246 263 254 268 277 267 285
76 25 26 35 72 97 104 114 119 116 102 88 80 104 124 98 84 100 108 146 138 131 126 125 126 123 115 115 115 107 96 96 104 102 84 77 81 82 94 307 323 318 315 262 266 267 274 272 269 276 285 297 300 291
82 59 56 39 30 97 104 81 77 79 81 91 117 122 119 88 94 92 122 125 134 130 128 122 125 131 131 123 117 117 121 129 139 141 113 41 353 139 113 88 243 257 300 292 296 289 271 282 290 292 289 291 296 295
68 36 73 27 63 41 70 57 51 56 72 49 93 54 67 60 97 106 133 135 134 128 119 115 117 122 123 126 127 125 121 106 87 60 40 25 7 360 353 340 328 318 317 319 311 308 296 293 293 296 293 288 286 294
64 69 83 43 55 51 38 34 53 52 15 11 93 89 97 87 104 126 126 128 127 126 126 127 126 128 132 136 132 125 111 80 53 23 29 22 348 323 336 332 329 327 326 328 325 318 309 304 299 294 291 293 290 292
64 42 89 54 54 47 39 42 67 57 80 90 101 113 107 96 90 110 111 116 123 124 125 130 124 121 125 123 124 92 33 21 28 88 358 336 276 303 310 312 314 316 318 317 313 307 312 314 312 314 313 307 303 295
86 78 78 70 82 85 88 89 82 77 86 100 112 111 113 113 98 108 112 120 122 122 127 135 133 128 119 104 93 46 333 338 336 330 318 310 309 306 308 310 310 313 316 318 318 316 313 315 311 307 307 305 306 308
50 81 123 110 127 142 109 88 78 92 96 100 101 102 107 104 94 117 140 118 113 128 142 130 133 156 141 125 127 181 297 320 325 325 322 316 312 313 312 314 317 319 321 321 322 321 320 317 315 311 310 309 308 308
99 99 106 103 125 143 172 142 106 100 93 99 93 93 74 67 111 155 167 165 153 155 162 171 162 153 144 131 97 26 343 332 331 332 328 321 318 322 325 329 334 336 335 332 328 324 322 319 317 315 312 311 310 310